"Timestamp","TZ","WindDir_Mean (deg)","WindSpd_Mean (km/h)","WindSpd_Min (km/h)","WindSpd_Max (km/h)","Temp_Mean (deg)","RH_Mean (%)","MSLP_Mean (hPa)","Rain_Acc (mm)","Rain_Intensity (mm/h)","Hail_Acc (hits/cm2)","Hail_Intensity (hits/cm2hr)","Solar_Mean (W/m2)"
2020/09/15 00:00:00.016,n,243,1.8,1.44,1.8,17.6,78.5,1026.02,0,0,0,0,0.024338
2020/09/15 00:01:00.000,n,255,2.52,2.52,2.88,17.6,78.6,1026.12,0,0,0,0,0.02697
2020/09/15 00:02:00.000,n,349,1.8,1.08,2.16,17.6,79,1026.12,0,0,0,0,0.021782
2020/09/15 00:03:00.000,n,276,1.44,0.72,2.16,17.6,78.9,1026.02,0,0,0,0,0.023499
2020/09/15 00:04:00.004,n,287,1.44,1.08,1.8,17.6,78.8,1026.02,0,0,0,0,0.026131
2020/09/15 00:05:00.003,n,272,2.52,2.52,2.88,17.6,78.9,1026.02,0,0,0,0,0.021782
2020/09/15 00:06:00.000,n,237,1.8,1.44,2.16,17.6,78.9,1026.12,0,0,0,0,0.025215
2020/09/15 00:07:00.012,n,312,1.08,0.36,1.8,17.6,78.8,1026.12,0,0,0,0,0.025215
2020/09/15 00:08:00.009,n,262,1.8,1.8,2.16,17.6,78.8,1026.02,0,0,0,0,0.021782
2020/09/15 00:09:00.006,n,267,1.8,1.08,2.16,17.6,78.8,1026.02,0,0,0,0,0.035706
2020/09/15 00:10:00.000,n,252,1.08,0.72,1.44,17.6,78.7,1026.12,0,0,0,0,0.037422
2020/09/15 00:11:00.001,n,230,2.16,2.16,2.52,17.6,78.6,1026.12,0,0,0,0,0.039177
2020/09/15 00:12:00.000,n,268,3.6,3.24,3.6,17.5,78.5,1026.12,0,0,0,0,0.0383
2020/09/15 00:13:00.000,n,260,2.88,2.88,3.24,17.5,78.6,1026.12,0,0,0,0,0.032196
2020/09/15 00:14:00.000,n,264,3.24,2.88,3.24,17.5,78.5,1026.12,0,0,0,0,0.035706
2020/09/15 00:15:00.008,n,262,2.88,2.52,2.88,17.5,78.5,1026.12,0,0,0,0,0.0383
2020/09/15 00:16:00.006,n,259,3.6,2.88,3.96,17.4,78.6,1026.12,0,0,0,0,0.033073
2020/09/15 00:17:00.003,n,280,2.88,2.52,3.24,17.4,78.6,1026.12,0,0,0,0,0.036545
2020/09/15 00:18:00.015,n,262,3.96,3.6,4.32,17.4,78.6,1026.12,0,0,0,0,0.034828
2020/09/15 00:19:00.000,n,259,3.6,2.88,3.96,17.4,78.7,1026.12,0,0,0,0,0.037422
2020/09/15 00:20:00.000,n,264,3.6,3.6,3.96,17.3,78.9,1026.12,0,0,0,0,0.0383
2020/09/15 00:21:00.000,n,263,2.88,2.52,3.24,17.3,78.8,1026.12,0,0,0,0,0.036545
2020/09/15 00:22:00.000,n,262,4.68,3.96,5.4,17.3,78.9,1026.12,0,0,0,0,0.033073
2020/09/15 00:23:00.010,n,268,3.6,3.24,4.32,17.3,78.7,1026.02,0,0,0,0,0.036545
2020/09/15 00:24:00.006,n,270,4.68,4.32,5.4,17.3,79,1026.02,0,0,0,0,0.031319
2020/09/15 00:25:00.002,n,266,2.88,2.16,3.24,17.3,79.2,1026.02,0,0,0,0,0.031319
2020/09/15 00:26:00.000,n,262,2.88,2.16,3.24,17.3,79.1,1026.02,0,0,0,0,0.033951
2020/09/15 00:27:00.013,n,253,3.6,3.24,4.32,17.3,78.9,1026.02,0,0,0,0,0.033073
2020/09/15 00:28:00.000,n,259,2.16,1.8,2.52,17.2,79,1026.02,0,0,0,0,0.033951
2020/09/15 00:29:00.000,n,239,1.8,1.44,2.16,17.2,78.9,1026.02,0,0,0,0,0.036545
2020/09/15 00:30:00.004,n,249,2.52,2.16,2.88,17.2,78.9,1026.02,0,0,0,0,0.029602
2020/09/15 00:31:00.001,n,248,1.8,1.44,2.16,17.2,79,1026.02,0,0,0,0,0.033073
2020/09/15 00:32:00.000,n,259,3.24,2.88,3.96,17.2,78.9,1026.02,0,0,0,0,0.034828
2020/09/15 00:33:00.000,n,202,1.8,1.8,2.16,17.2,78.8,1026.02,0,0,0,0,0.031319
2020/09/15 00:34:00.009,n,245,2.88,2.16,3.24,17.1,78.8,1026.02,0,0,0,0,0.034828
2020/09/15 00:35:00.007,n,274,0.72,0.36,1.44,17.1,78.9,1026.02,0,0,0,0,0.035706
2020/09/15 00:36:00.003,n,229,2.52,2.16,2.52,17.1,79,1026.02,0,0,0,0,0.034828
2020/09/15 00:37:00.000,n,298,0.72,0.36,1.08,17.1,79,1025.92,0,0,0,0,0.033073
2020/09/15 00:38:00.000,n,184,1.08,0.36,2.16,17.1,79.1,1025.92,0,0,0,0,0.033073
2020/09/15 00:39:00.000,n,113,1.44,1.08,1.44,17.1,79,1025.92,0,0,0,0,0.033951
2020/09/15 00:40:00.000,n,349,1.08,1.08,1.8,17.1,79,1025.92,0,0,0,0,0.030479
2020/09/15 00:41:00.005,n,306,1.8,1.44,2.16,17.1,79,1025.92,0,0,0,0,0.032196
2020/09/15 00:42:00.002,n,55,0.72,0.36,1.8,17.2,78.9,1025.92,0,0,0,0,0.035706
2020/09/15 00:43:00.000,n,302,0.72,0.72,1.08,17.2,78.9,1025.82,0,0,0,0,0.033951
2020/09/15 00:44:00.012,n,98,1.08,0.36,1.8,17.2,78.9,1025.82,0,0,0,0,0.034828
2020/09/15 00:45:00.009,n,259,2.52,2.16,2.88,17.2,78.7,1025.82,0,0,0,0,0.031319
2020/09/15 00:46:00.000,n,232,2.88,2.16,3.6,17.2,78.6,1025.82,0,0,0,0,0.031319
2020/09/15 00:47:00.003,n,244,2.52,2.16,2.52,17.2,79.1,1025.82,0,0,0,0,0.031319
2020/09/15 00:48:00.000,n,232,1.8,1.44,2.16,17.2,78.7,1025.82,0,0,0,0,0.028725
2020/09/15 00:49:00.000,n,269,3.24,2.16,3.6,17.2,78.6,1025.82,0,0,0,0,0.027847
2020/09/15 00:50:00.000,n,279,2.88,2.52,3.24,17.2,78.6,1025.82,0,0,0,0,0.031319
2020/09/15 00:51:00.009,n,294,1.8,1.08,2.16,17.2,79.4,1025.82,0,0,0,0,0.030479
2020/09/15 00:52:00.006,n,282,2.52,1.8,2.88,17.2,79,1025.82,0,0,0,0,0.032196
2020/09/15 00:53:00.003,n,258,3.96,3.6,3.96,17.2,78.7,1025.82,0,0,0,0,0.030479
2020/09/15 00:54:00.000,n,282,1.8,1.08,2.52,17.2,79.1,1025.82,0,0,0,0,0.02697
2020/09/15 00:55:00.000,n,280,5.04,3.24,6.12,17.2,79.2,1025.82,0,0,0,0,0.028725
2020/09/15 00:56:00.000,n,234,1.08,0.36,1.44,17.2,79,1025.82,0,0,0,0,0.031319
2020/09/15 00:57:00.000,n,233,1.08,0.72,1.8,17.2,79,1025.82,0,0,0,0,0.031319
2020/09/15 00:58:00.004,n,140,0.72,0.36,0.72,17.1,78.9,1025.82,0,0,0,0,0.028725
2020/09/15 00:59:00.001,n,257,1.8,0.36,3.96,17.1,79.4,1025.82,0,0,0,0,0.031319
2020/09/15 01:00:00.000,n,272,2.16,1.44,2.52,17.2,79.3,1025.82,0,0,0,0,0.030479
2020/09/15 01:01:00.010,n,261,1.08,0.72,1.8,17.2,79.2,1025.82,0,0,0,0,0.024338
2020/09/15 01:02:00.008,n,101,0.72,0.72,1.44,17.2,79,1025.82,0,0,0,0,0.030479
2020/09/15 01:03:00.005,n,134,0.36,0,1.08,17.1,79,1025.72,0,0,0,0,0.033073
2020/09/15 01:04:00.000,n,202,0.72,0.36,1.44,17.1,79,1025.72,0,0,0,0,0.029602
2020/09/15 01:05:00.000,n,286,1.8,0.72,3.24,17.1,79.2,1025.72,0,0,0,0,0.027847
2020/09/15 01:06:00.000,n,252,1.44,0.72,2.16,17.1,79.1,1025.72,0,0,0,0,0.027847
2020/09/15 01:07:00.000,n,250,2.16,1.8,2.52,17.1,79.2,1025.72,0,0,0,0,0.026131
2020/09/15 01:08:00.007,n,230,1.44,1.08,1.44,17.1,79.3,1025.72,0,0,0,0,0.031319
2020/09/15 01:09:00.004,n,225,0.36,0,1.08,17.1,79.2,1025.72,0,0,0,0,0.028725
2020/09/15 01:10:00.001,n,243,1.44,0.72,1.8,17.1,79.3,1025.72,0,0,0,0,0.029602
2020/09/15 01:11:00.014,n,231,1.8,0.36,3.24,17.1,79.4,1025.72,0,0,0,0,0.026131
2020/09/15 01:12:00.011,n,305,0.72,0.36,1.08,17.1,79.5,1025.72,0,0,0,0,0.029602
2020/09/15 01:13:00.000,n,258,2.52,2.16,2.88,17.2,79.7,1025.72,0,0,0,0,0.020905
2020/09/15 01:14:00.000,n,259,2.88,2.52,3.24,17.2,79.3,1025.72,0,0,0,0,0.027847
2020/09/15 01:15:00.002,n,250,2.52,1.8,2.88,17.1,79.4,1025.72,0,0,0,0,0.025253
2020/09/15 01:16:00.000,n,243,2.52,2.52,2.88,17.1,79.5,1025.72,0,0,0,0,0.028725
2020/09/15 01:17:00.000,n,252,1.08,0.72,2.16,17.1,79.3,1025.72,0,0,0,0,0.02697
2020/09/15 01:18:00.009,n,262,2.52,2.16,2.52,17.1,79.3,1025.72,0,0,0,0,0.027847
2020/09/15 01:19:00.006,n,218,1.44,1.44,1.8,17.1,79.6,1025.72,0,0,0,0,0.028725
2020/09/15 01:20:00.004,n,234,1.44,1.44,1.8,17.1,79.7,1025.62,0,0,0,0,0.026131
2020/09/15 01:21:00.016,n,260,0.36,0,0.72,17.1,79.7,1025.62,0,0,0,0,0.03746
2020/09/15 01:22:00.000,n,115,0.72,0.72,0.72,17.1,79.6,1025.62,0,0,0,0,0.036545
2020/09/15 01:23:00.000,n,110,1.08,0.72,1.8,17.1,79.5,1025.62,0,0,0,0,0.033951
2020/09/15 01:24:00.000,n,183,0.36,0.36,0.36,17.1,79.4,1025.62,0,0,0,0,0.035706
2020/09/15 01:25:00.005,n,223,1.8,1.44,2.16,17.1,79.8,1025.62,0,0,0,0,0.036545
2020/09/15 01:26:00.003,n,90,0.72,0.36,0.72,17.1,79.7,1025.62,0,0,0,0,0.036545
2020/09/15 01:27:00.000,n,320,1.44,0.72,1.44,17.1,79.7,1025.62,0,0,0,0,0.035706
2020/09/15 01:28:00.000,n,31,0.72,0.72,1.08,17.1,79.7,1025.62,0,0,0,0,0.031319
2020/09/15 01:29:00.011,n,243,0.36,0.36,0.36,17.1,79.6,1025.62,0,0,0,0,0.033951
2020/09/15 01:30:00.008,n,180,0.72,0.36,0.72,17.1,79.5,1025.62,0,0,0,0,0.031319
2020/09/15 01:31:00.000,n,10,0.72,0.72,1.44,17.1,79.7,1025.62,0,0,0,0,0.031319
2020/09/15 01:32:00.001,n,325,0.36,0.36,0.72,17.1,79.6,1025.62,0,0,0,0,0.036545
2020/09/15 01:33:00.000,n,120,1.44,1.08,1.8,17.1,79.6,1025.62,0,0,0,0,0.034828
2020/09/15 01:34:00.000,n,139,2.52,2.16,2.88,17.1,79.6,1025.62,0,0,0,0,0.032196
2020/09/15 01:35:00.000,n,142,1.44,1.08,1.8,17.1,79.7,1025.62,0,0,0,0,0.033112
2020/09/15 01:36:00.007,n,105,1.08,0.72,1.08,17,79.6,1025.62,0,0,0,0,0.035706
2020/09/15 01:37:00.005,n,89,0.36,0,0.72,17,79.6,1025.62,0,0,0,0,0.033112
2020/09/15 01:38:00.002,n,130,0.72,0.36,1.08,17,79.7,1025.62,0,0,0,0,0.031319
2020/09/15 01:39:00.015,n,96,0.72,0.36,1.08,17,79.9,1025.62,0,0,0,0,0.033112
2020/09/15 01:40:00.000,n,131,1.8,1.44,1.8,17,79.9,1025.62,0,0,0,0,0.031319
2020/09/15 01:41:00.000,n,157,0.72,0.36,1.44,17,79.9,1025.52,0,0,0,0,0.030479
2020/09/15 01:42:00.000,n,112,1.08,0.72,1.44,17,80,1025.62,0,0,0,0,0.032196
2020/09/15 01:43:00.003,n,221,2.88,2.16,3.24,17,80,1025.52,0,0,0,0,0.033112
2020/09/15 01:44:00.000,n,255,0.72,0.36,1.44,17,80,1025.52,0,0,0,0,0.027847
2020/09/15 01:45:00.000,n,84,0.72,0.36,1.08,17,80.2,1025.52,0,0,0,0,0.031319
2020/09/15 01:46:00.011,n,264,1.08,0.72,1.8,17,80.1,1025.52,0,0,0,0,0.030479
2020/09/15 01:47:00.008,n,228,1.8,1.08,2.16,17,80.3,1025.52,0,0,0,0,0.029602
2020/09/15 01:48:00.004,n,236,0.72,0.72,0.72,17,80.2,1025.52,0,0,0,0,0.028725
2020/09/15 01:49:00.002,n,147,0.36,0.36,1.08,17,80.4,1025.52,0,0,0,0,0.028725
2020/09/15 01:50:00.000,n,256,1.8,1.08,2.16,17,80.6,1025.52,0,0,0,0,0.028725
2020/09/15 01:51:00.000,n,199,1.44,1.08,1.44,17,80.5,1025.52,0,0,0,0,0.031319
2020/09/15 01:52:00.000,n,261,1.8,1.44,2.16,17,80.4,1025.52,0,0,0,0,0.027847
2020/09/15 01:53:00.007,n,329,1.08,0.72,1.08,17,80.5,1025.52,0,0,0,0,0.033112
2020/09/15 01:54:00.005,n,288,2.16,1.8,2.52,17,80.5,1025.52,0,0,0,0,0.030479
2020/09/15 01:55:00.001,n,270,2.52,2.16,3.6,17,80.9,1025.52,0,0,0,0,0.028725
2020/09/15 01:56:00.000,n,249,2.52,1.8,2.88,17,81,1025.52,0,0,0,0,0.028725
2020/09/15 01:57:00.011,n,276,3.24,1.8,4.68,17.1,81.2,1025.52,0,0,0,0,0.031319
2020/09/15 01:58:00.000,n,227,1.08,0.72,1.44,17.1,81,1025.42,0,0,0,0,0.02697
2020/09/15 01:59:00.000,n,261,2.52,2.16,3.24,17.1,80.6,1025.42,0,0,0,0,0.026131
2020/09/15 02:00:00.003,n,111,0.72,0.36,1.8,17,80.5,1025.42,0,0,0,0,0.030479
2020/09/15 02:01:00.000,n,203,1.8,1.08,2.16,17,80.5,1025.42,0,0,0,0,0.031319
2020/09/15 02:02:00.000,n,101,0.36,0.36,0.72,17,80.7,1025.42,0,0,0,0,0.032196
2020/09/15 02:03:00.010,n,93,1.08,1.08,1.08,16.9,80.5,1025.42,0,0,0,0,0.031319
2020/09/15 02:04:00.007,n,29,0.72,0.36,0.72,16.9,80.5,1025.42,0,0,0,0,0.02697
2020/09/15 02:05:00.003,n,233,2.16,1.8,2.52,16.9,80.5,1025.42,0,0,0,0,0.029602
2020/09/15 02:06:00.002,n,141,0.36,0.36,0.72,16.9,80.7,1025.42,0,0,0,0,0.026131
2020/09/15 02:07:00.000,n,217,0.36,0.36,0.36,16.9,80.7,1025.42,0,0,0,0,0.025253
2020/09/15 02:08:00.000,n,107,0.72,0.72,0.72,16.9,80.6,1025.42,0,0,0,0,0.025253
2020/09/15 02:09:00.000,n,252,1.08,0.36,1.44,16.8,80.7,1025.42,0,0,0,0,0.029602
2020/09/15 02:10:00.006,n,176,1.08,0.72,1.44,16.8,80.8,1025.42,0,0,0,0,0.032196
2020/09/15 02:11:00.003,n,76,0.36,0.36,0.72,16.8,80.8,1025.42,0,0,0,0,0.028725
2020/09/15 02:12:00.000,n,214,0.72,0,1.44,16.8,80.8,1025.42,0,0,0,0,0.029602
2020/09/15 02:13:00.000,n,197,1.44,0.36,2.16,16.8,80.9,1025.32,0,0,0,0,0.02697
2020/09/15 02:14:00.010,n,215,1.08,0.72,1.08,16.8,80.9,1025.32,0,0,0,0,0.027847
2020/09/15 02:15:00.008,n,142,0.72,0.36,1.08,16.8,81,1025.32,0,0,0,0,0.030479
2020/09/15 02:16:00.000,n,187,1.44,1.08,1.44,16.8,81,1025.32,0,0,0,0,0.030479
2020/09/15 02:17:00.001,n,345,1.08,0.72,1.44,16.8,81.2,1025.32,0,0,0,0,0.02697
2020/09/15 02:18:00.000,n,177,1.08,0.72,1.44,16.8,81.2,1025.32,0,0,0,0,0.02697
2020/09/15 02:19:00.000,n,189,0.36,0.36,0.72,16.8,81.1,1025.32,0,0,0,0,0.022621
2020/09/15 02:20:00.000,n,134,0.36,0.36,0.72,16.8,81.1,1025.32,0,0,0,0,0.025253
2020/09/15 02:21:00.006,n,80,0.72,0.36,1.08,16.8,81.1,1025.32,0,0,0,0,0.029602
2020/09/15 02:22:00.005,n,130,2.52,1.8,3.6,16.8,81.1,1025.32,0,0,0,0,0.028725
2020/09/15 02:23:00.001,n,315,1.08,0.36,2.16,16.8,81.2,1025.32,0,0,0,0,0.02697
2020/09/15 02:24:00.015,n,208,0.36,0,0.72,16.8,81.8,1025.22,0,0,0,0,0.030479
2020/09/15 02:25:00.000,n,85,1.08,0.72,1.44,16.8,81.3,1025.22,0,0,0,0,0.027847
2020/09/15 02:26:00.000,n,120,2.88,2.52,3.6,16.8,81.1,1025.22,0,0,0,0,0.028725
2020/09/15 02:27:00.000,n,142,1.8,1.8,2.16,16.8,81.1,1025.22,0,0,0,0,0.027847
2020/09/15 02:28:00.006,n,97,2.16,1.8,2.52,16.8,81.1,1025.22,0,0,0,0,0.023537
2020/09/15 02:29:00.004,n,150,1.44,1.08,1.8,16.700002,81,1025.22,0,0,0,0,0.029602
2020/09/15 02:30:00.000,n,149,3.6,2.88,3.6,16.700002,81.1,1025.22,0,0,0,0,0.027847
2020/09/15 02:31:00.012,n,169,3.24,2.88,3.24,16.700002,81.3,1025.22,0,0,0,0,0.028725
2020/09/15 02:32:00.009,n,156,3.96,3.24,5.76,16.700002,81.3,1025.22,0,0,0,0,0.026131
2020/09/15 02:33:00.006,n,144,3.96,3.6,4.32,16.700002,81.2,1025.22,0,0,0,0,0.021782
2020/09/15 02:34:00.000,n,124,5.04,3.96,7.56,16.6,81.1,1025.22,0,0,0,0,0.022621
2020/09/15 02:35:00.000,n,146,7.2,6.12,7.92,16.6,81.3,1025.22,0,0,0,0,0.025253
2020/09/15 02:36:00.000,n,144,3.96,2.52,4.32,16.6,81.3,1025.22,0,0,0,0,0.026131
2020/09/15 02:37:00.000,n,135,3.6,3.6,3.96,16.6,81.3,1025.22,0,0,0,0,0.023537
2020/09/15 02:38:00.000,n,151,3.96,3.6,4.68,16.6,81.4,1025.22,0,0,0,0,0.023537
2020/09/15 02:39:00.005,n,170,5.04,4.68,5.4,16.5,81.5,1025.22,0,0,0,0,0.028725
2020/09/15 02:40:00.002,n,131,2.52,1.8,2.88,16.5,81.4,1025.22,0,0,0,0,0.032196
2020/09/15 02:41:00.000,n,146,1.44,0.36,2.16,16.5,81.5,1025.12,0,0,0,0,0.033112
2020/09/15 02:42:00.012,n,169,6.84,4.68,8.64,16.5,81.5,1025.12,0,0,0,0,0.033112
2020/09/15 02:43:00.000,n,160,2.88,1.8,3.24,16.5,81.5,1025.12,0,0,0,0,0.032196
2020/09/15 02:44:00.000,n,169,6.12,5.76,6.48,16.5,81.5,1025.12,0,0,0,0,0.030479
2020/09/15 02:45:00.003,n,170,5.04,5.04,5.4,16.4,81.5,1025.12,0,0,0,0,0.033112
2020/09/15 02:46:00.000,n,140,5.04,4.68,5.4,16.4,81.5,1025.12,0,0,0,0,0.030479
2020/09/15 02:47:00.000,n,169,4.68,4.68,5.04,16.4,81.6,1025.12,0,0,0,0,0.031319
2020/09/15 02:48:00.010,n,168,2.88,2.52,3.24,16.4,81.7,1025.12,0,0,0,0,0.031319
2020/09/15 02:49:00.007,n,206,1.08,0.72,1.8,16.4,81.7,1025.12,0,0,0,0,0.030479
2020/09/15 02:50:00.005,n,128,2.16,1.44,3.6,16.3,81.8,1025.12,0,0,0,0,0.033951
2020/09/15 02:51:00.002,n,188,3.6,2.88,4.32,16.3,82,1025.12,0,0,0,0,0.028725
2020/09/15 02:52:00.000,n,161,3.6,3.24,3.96,16.3,81.9,1025.12,0,0,0,0,0.027847
2020/09/15 02:53:00.000,n,185,3.96,3.24,4.32,16.3,82,1025.12,0,0,0,0,0.030479
2020/09/15 02:54:00.000,n,196,1.8,1.44,2.16,16.3,82,1025.12,0,0,0,0,0.029602
2020/09/15 02:55:00.007,n,221,2.16,1.8,2.52,16.3,82,1025.12,0,0,0,0,0.029602
2020/09/15 02:56:00.005,n,135,0.72,0,1.44,16.3,82,1025.12,0,0,0,0,0.031319
2020/09/15 02:57:00.001,n,146,0.36,0.36,0.36,16.3,82,1025.12,0,0,0,0,0.02697
2020/09/15 02:58:00.000,n,192,1.08,0.72,1.8,16.3,82,1025.12,0,0,0,0,0.02697
2020/09/15 02:59:00.013,n,127,1.08,0.36,1.8,16.3,82,1025.12,0,0,0,0,0.030479
2020/09/15 03:00:00.010,n,147,2.52,2.16,2.52,16.3,82.1,1025.12,0,0,0,0,0.025253
2020/09/15 03:01:00.000,n,103,0.72,0.72,1.44,16.3,82,1025.12,0,0,0,0,0.02697
2020/09/15 03:02:00.000,n,105,2.16,2.16,2.16,16.3,82,1025.12,0,0,0,0,0.026131
2020/09/15 03:03:00.000,n,176,0.72,0.36,1.08,16.3,82,1025.12,0,0,0,0,0.02697
2020/09/15 03:04:00.000,n,76,1.8,0.72,2.88,16.200002,82,1025.12,0,0,0,0,0.027847
2020/09/15 03:05:00.000,n,141,0.72,0.72,1.08,16.200002,82,1025.12,0,0,0,0,0.028725
2020/09/15 03:06:00.007,n,269,2.16,2.16,2.52,16.200002,82.1,1025.12,0,0,0,0,0.025253
2020/09/15 03:07:00.005,n,257,1.8,0.72,2.52,16.200002,82.3,1025.12,0,0,0,0,0.02697
2020/09/15 03:08:00.002,n,262,2.52,2.16,2.52,16.200002,82.5,1025.02,0,0,0,0,0.028725
2020/09/15 03:09:00.015,n,267,2.52,2.16,2.88,16.3,82.4,1025.02,0,0,0,0,0.021744
2020/09/15 03:10:00.000,n,253,1.8,1.44,3.24,16.3,82.3,1025.02,0,0,0,0,0.01915
2020/09/15 03:11:00.000,n,278,3.6,3.6,3.96,16.200002,82.3,1025.02,0,0,0,0,0.022621
2020/09/15 03:12:00.000,n,272,3.96,3.6,4.68,16.200002,82.4,1025.02,0,0,0,0,0.021744
2020/09/15 03:13:00.004,n,267,2.88,2.52,3.6,16.200002,82.4,1025.02,0,0,0,0,0.020905
2020/09/15 03:14:00.001,n,265,2.52,2.16,2.52,16.200002,82.3,1025.02,0,0,0,0,0.028725
2020/09/15 03:15:00.000,n,220,2.16,1.44,2.52,16.200002,82.4,1025.02,0,0,0,0,0.035706
2020/09/15 03:16:00.010,n,284,1.44,1.08,1.8,16.200002,82.7,1025.02,0,0,0,0,0.033073
2020/09/15 03:17:00.007,n,257,1.08,0.72,2.52,16.200002,82.5,1025.02,0,0,0,0,0.030479
2020/09/15 03:18:00.004,n,235,1.8,1.08,2.52,16.200002,82.5,1025.02,0,0,0,0,0.033073
2020/09/15 03:19:00.001,n,228,2.16,1.8,2.52,16.1,82.5,1025.02,0,0,0,0,0.031357
2020/09/15 03:20:00.000,n,242,1.44,0.72,2.88,16.1,82.6,1025.02,0,0,0,0,0.033073
2020/09/15 03:21:00.000,n,247,2.16,1.8,2.52,16.1,82.6,1025.02,0,0,0,0,0.027847
2020/09/15 03:22:00.000,n,297,3.24,2.88,4.32,16.1,82.4,1025.02,0,0,0,0,0.027847
2020/09/15 03:23:00.005,n,275,1.44,1.08,1.8,16.1,82.7,1025.02,0,0,0,0,0.027008
2020/09/15 03:24:00.003,n,158,1.8,1.44,1.8,16.1,82.6,1025.02,0,0,0,0,0.036583
2020/09/15 03:25:00.000,n,50,0.36,0.36,0.72,16.1,82.6,1025.02,0,0,0,0,0.028725
2020/09/15 03:26:00.013,n,224,0,0,0.36,16,82.6,1025.02,0,0,0,0,0.030479
2020/09/15 03:27:00.010,n,153,0.72,0.36,1.08,16,82.6,1025.02,0,0,0,0,0.024376
2020/09/15 03:28:00.000,n,140,2.16,1.8,2.16,16,82.7,1025.02,0,0,0,0,0.027847
2020/09/15 03:29:00.000,n,146,2.16,2.16,2.52,16,82.8,1025.02,0,0,0,0,0.033073
2020/09/15 03:30:00.000,n,196,2.16,1.8,2.88,16,82.8,1025.02,0,0,0,0,0.030479
2020/09/15 03:31:00.000,n,215,0.36,0.36,0.36,16,83.5,1025.12,0,0,0,0,0.027847
2020/09/15 03:32:00.000,n,128,0.72,0,1.44,16,83.2,1025.12,0,0,0,0,0.028725
2020/09/15 03:33:00.008,n,148,1.08,1.08,1.44,16,83,1025.12,0,0,0,0,0.026131
2020/09/15 03:34:00.005,n,139,2.16,1.8,2.52,16,83,1025.12,0,0,0,0,0.029602
2020/09/15 03:35:00.002,n,105,1.44,1.08,2.16,16,83,1025.12,0,0,0,0,0.027847
2020/09/15 03:36:00.015,n,133,5.04,4.68,5.4,16,83,1025.12,0,0,0,0,0.028725
2020/09/15 03:37:00.000,n,176,2.16,1.8,2.88,16,83.1,1025.12,0,0,0,0,0.028725
2020/09/15 03:38:00.000,n,137,1.8,0.36,3.24,16,83,1025.12,0,0,0,0,0.028725
2020/09/15 03:39:00.000,n,170,1.44,0.72,2.16,15.9,83.1,1025.12,0,0,0,0,0.030479
2020/09/15 03:40:00.006,n,157,2.52,1.08,3.24,15.9,83.1,1025.12,0,0,0,0,0.025253
2020/09/15 03:41:00.003,n,167,2.52,1.44,3.24,15.9,83,1025.12,0,0,0,0,0.023499
2020/09/15 03:42:00.000,n,161,2.52,2.16,2.52,15.8,83,1025.12,0,0,0,0,0.027008
2020/09/15 03:43:00.000,n,150,2.52,2.52,3.24,15.8,83.1,1025.12,0,0,0,0,0.027847
2020/09/15 03:44:00.009,n,167,2.88,2.52,3.24,15.8,83.1,1025.12,0,0,0,0,0.023499
2020/09/15 03:45:00.007,n,3,1.08,0.36,1.44,15.8,83.2,1025.12,0,0,0,0,0.025253
2020/09/15 03:46:00.000,n,147,3.6,3.6,3.96,15.8,83.3,1025.12,0,0,0,0,0.026131
2020/09/15 03:47:00.001,n,212,0.72,0.36,0.72,15.7,83.3,1025.12,0,0,0,0,0.020027
2020/09/15 03:48:00.000,n,181,2.52,2.52,2.88,15.7,83.3,1025.12,0,0,0,0,0.022621
2020/09/15 03:49:00.000,n,165,1.44,1.08,2.16,15.7,83.4,1025.12,0,0,0,0,0.020027
2020/09/15 03:50:00.008,n,291,0.36,0.36,0.72,15.7,83.5,1025.12,0,0,0,0,0.025253
2020/09/15 03:51:00.005,n,208,0.72,0.36,0.72,15.7,83.4,1025.12,0,0,0,0,0.020905
2020/09/15 03:52:00.002,n,332,1.8,1.08,3.24,15.7,83.5,1025.12,0,0,0,0,0.020905
2020/09/15 03:53:00.000,n,289,1.44,1.08,1.8,15.7,84,1025.12,0,0,0,0,0.021782
2020/09/15 03:54:00.012,n,122,0.72,0.36,1.08,15.8,84,1025.12,0,0,0,0,0.014801
2020/09/15 03:55:00.000,n,197,0.72,0.72,1.08,15.8,83.7,1025.22,0,0,0,0,0.025253
2020/09/15 03:56:00.002,n,288,0.72,0.36,1.08,15.7,83.5,1025.22,0,0,0,0,0.033112
2020/09/15 03:57:00.000,n,114,2.52,1.44,3.24,15.7,83.5,1025.22,0,0,0,0,0.027008
2020/09/15 03:58:00.000,n,206,2.16,1.44,2.52,15.7,83.6,1025.22,0,0,0,0,0.028725
2020/09/15 03:59:00.000,n,129,3.6,3.24,4.32,15.7,83.7,1025.22,0,0,0,0,0.025253
2020/09/15 04:00:00.007,n,264,1.8,0.72,2.88,15.7,83.7,1025.12,0,0,0,0,0.027008
2020/09/15 04:01:00.004,n,272,1.8,1.44,2.52,15.7,84.1,1025.12,0,0,0,0,0.023537
2020/09/15 04:02:00.001,n,280,1.08,0.72,1.08,15.7,83.9,1025.12,0,0,0,0,0.027885
2020/09/15 04:03:00.015,n,348,1.08,0.72,1.44,15.7,84.4,1025.12,0,0,0,0,0.030479
2020/09/15 04:04:00.000,n,222,2.52,2.16,2.52,15.8,83.9,1025.12,0,0,0,0,0.027008
2020/09/15 04:05:00.000,n,320,3.6,2.52,4.68,15.8,83.9,1025.22,0,0,0,0,0.027008
2020/09/15 04:06:00.000,n,271,1.08,0.36,1.8,15.8,83.9,1025.12,0,0,0,0,0.027885
2020/09/15 04:07:00.002,n,235,3.24,2.88,3.24,15.7,83.7,1025.22,0,0,0,0,0.032234
2020/09/15 04:08:00.000,n,306,0.72,0.36,0.72,15.7,83.7,1025.22,0,0,0,0,0.032234
2020/09/15 04:09:00.000,n,142,1.44,1.44,1.8,15.7,84,1025.22,0,0,0,0,0.034828
2020/09/15 04:10:00.010,n,174,1.08,0.72,1.08,15.7,83.9,1025.22,0,0,0,0,0.033989
2020/09/15 04:11:00.008,n,189,0.72,0,1.08,15.7,83.8,1025.22,0,0,0,0,0.027885
2020/09/15 04:12:00.005,n,181,3.24,2.88,3.6,15.7,84,1025.22,0,0,0,0,0.028763
2020/09/15 04:13:00.002,n,238,1.44,1.08,1.8,15.7,84,1025.22,0,0,0,0,0.028763
2020/09/15 04:14:00.000,n,158,0.72,0.36,0.72,15.7,83.9,1025.22,0,0,0,0,0.03746
2020/09/15 04:15:00.000,n,261,0.72,0.36,1.44,15.7,84,1025.22,0,0,0,0,0.034828
2020/09/15 04:16:00.000,n,117,1.8,1.44,2.16,15.7,84.1,1025.22,0,0,0,0,0.032234
2020/09/15 04:17:00.000,n,134,1.8,1.44,1.8,15.7,84,1025.22,0,0,0,0,0.032234
2020/09/15 04:18:00.006,n,112,2.16,1.8,2.52,15.6,84,1025.22,0,0,0,0,0.029602
2020/09/15 04:19:00.003,n,170,3.96,2.52,4.32,15.6,84.2,1025.22,0,0,0,0,0.032234
2020/09/15 04:20:00.001,n,107,1.8,1.44,2.88,15.7,84.2,1025.22,0,0,0,0,0.033989
2020/09/15 04:21:00.014,n,97,2.16,2.16,2.52,15.7,84.2,1025.22,0,0,0,0,0.028763
2020/09/15 04:22:00.000,n,125,1.44,1.08,1.44,15.7,84.2,1025.22,0,0,0,0,0.025253
2020/09/15 04:23:00.000,n,166,2.16,1.8,2.88,15.7,84.1,1025.22,0,0,0,0,0.021782
2020/09/15 04:24:00.000,n,122,1.44,1.08,1.44,15.7,84.2,1025.32,0,0,0,0,0.029602
2020/09/15 04:25:00.005,n,170,0.36,0.36,0.72,15.6,84.1,1025.32,0,0,0,0,0.027008
2020/09/15 04:26:00.002,n,169,2.16,1.8,2.52,15.6,84,1025.32,0,0,0,0,0.029602
2020/09/15 04:27:00.000,n,214,1.08,0.72,1.08,15.6,83.8,1025.32,0,0,0,0,0.028763
2020/09/15 04:28:00.000,n,138,0.72,0.72,0.72,15.6,83.8,1025.32,0,0,0,0,0.033112
2020/09/15 04:29:00.010,n,140,1.08,0.72,1.44,15.5,84,1025.32,0,0,0,0,0.027885
2020/09/15 04:30:00.008,n,73,1.08,0.72,1.08,15.5,84.1,1025.32,0,0,0,0,0.027008
2020/09/15 04:31:00.000,n,311,1.44,1.08,1.8,15.5,84.1,1025.32,0,0,0,0,0.027008
2020/09/15 04:32:00.001,n,194,1.44,1.44,1.8,15.5,84.3,1025.32,0,0,0,0,0.027885
2020/09/15 04:33:00.000,n,193,1.08,0.72,1.08,15.5,84.1,1025.42,0,0,0,0,0.027885
2020/09/15 04:34:00.000,n,273,1.44,1.08,1.8,15.5,84.1,1025.42,0,0,0,0,0.027008
2020/09/15 04:35:00.000,n,115,0.72,0.36,1.08,15.5,84.3,1025.42,0,0,0,0,0.027885
2020/09/15 04:36:00.006,n,134,1.8,1.44,1.8,15.5,84.3,1025.42,0,0,0,0,0.023537
2020/09/15 04:37:00.004,n,220,3.24,2.16,3.96,15.5,84.4,1025.42,0,0,0,0,0.028763
2020/09/15 04:38:00.001,n,319,0.36,0.36,0.72,15.6,84.5,1025.42,0,0,0,0,0.028763
2020/09/15 04:39:00.014,n,100,0.72,0.36,0.72,15.6,84.4,1025.42,0,0,0,0,0.030479
2020/09/15 04:40:00.000,n,301,1.8,1.44,2.16,15.6,84.3,1025.42,0,0,0,0,0.027885
2020/09/15 04:41:00.000,n,104,1.8,1.44,2.16,15.6,84.2,1025.42,0,0,0,0,0.027008
2020/09/15 04:42:00.000,n,101,1.08,0.72,1.44,15.5,84.3,1025.42,0,0,0,0,0.028763
2020/09/15 04:43:00.005,n,162,1.44,1.08,1.44,15.5,84.2,1025.42,0,0,0,0,0.029602
2020/09/15 04:44:00.003,n,254,1.44,0.72,2.52,15.5,84.2,1025.42,0,0,0,0,0.027008
2020/09/15 04:45:00.000,n,175,1.44,1.08,1.8,15.5,84.3,1025.42,0,0,0,0,0.027008
2020/09/15 04:46:00.000,n,210,0.36,0.36,0.36,15.5,84.3,1025.42,0,0,0,0,0.033989
2020/09/15 04:47:00.010,n,200,2.88,2.52,3.24,15.5,84.3,1025.42,0,0,0,0,0.034828
2020/09/15 04:48:00.008,n,205,2.16,1.8,2.52,15.5,84.4,1025.42,0,0,0,0,0.031357
2020/09/15 04:49:00.000,n,159,1.08,0.36,1.44,15.5,84.4,1025.42,0,0,0,0,0.033989
2020/09/15 04:50:00.001,n,123,1.8,1.8,2.16,15.5,84.4,1025.42,0,0,0,0,0.035706
2020/09/15 04:51:00.000,n,125,1.08,0.72,1.44,15.6,84.3,1025.42,0,0,0,0,0.03746
2020/09/15 04:52:00.000,n,215,1.08,0.72,1.44,15.5,84.2,1025.52,0,0,0,0,0.033989
2020/09/15 04:53:00.000,n,125,2.16,1.8,2.52,15.5,84.4,1025.52,0,0,0,0,0.036583
2020/09/15 04:54:00.006,n,161,3.96,2.88,5.4,15.5,84.5,1025.52,0,0,0,0,0.034828
2020/09/15 04:55:00.003,n,133,2.16,1.8,2.52,15.6,84.4,1025.52,0,0,0,0,0.032234